Regional Weather Roundup
Issued by NWS

Home | Current Version | Previous Version | Text Only | Print | Product List | Glossary Off
Versions: 1 2 3 4 5 6 7 8 9 10 11 12 13 14 15 16 17 18 19 20 21 22 23 24 25 26 27 28 29 30 31 32 33 34 35 36 37 38 39 40 41 42 43 44 45 46 47 48 49 50

000
ASUS43 KOAX 052310
RWRNE

WEATHER ROUNDUP FOR NEBRASKA
NATIONAL WEATHER SERVICE OMAHA NE
500 PM CST MON DEC 05 2016

NOTES: SATELLITE DATA IS BEING USED TO AUGMENT CLOUD COVER ABOVE
       12000 FEET.
       "FAIR" INDICATES FEW OR NO CLOUDS BELOW 12,000 FEET WITH NO
       SIGNIFICANT WEATHER AND/OR OBSTRUCTIONS TO VISIBILITY.

  * THESE STATIONS DO NOT REPORT WEATHER SUCH AS RAIN...SNOW OR FOG.

NEZ001>004-019>022-054>056-060000-
NEBRASKA PANHANDLE

CITY           SKY/WX    TMP DP  RH WIND       PRES   REMARKS
SCOTTSBLUFF    CLEAR     26  14  60 NW21G31   29.84R WCI  12
ALLIANCE       CLEAR     26  12  55 NW25G38   29.77R WCI  11
CHADRON        CLOUDY    25  13  60 W17G29    29.85R WCI  12
KIMBALL        CLOUDY    25  17  71 NW31G38   29.74S WCI   8
SIDNEY         CLEAR     27  11  51 N38G45    29.74R WCI   9
$$

NEZ057>060-069>072-079>082-060000-
SOUTHWEST NEBRASKA

CITY           SKY/WX    TMP DP  RH WIND       PRES   REMARKS
NORTH PLATTE   PTCLDY    41  28  60 N21G28    29.70R
IMPERIAL       MOCLDY    40  13  33 NW29G44   29.74R WCI  29
LEXINGTON      CLOUDY    50  25  37 N16       29.66R
MCCOOK         CLEAR     50  13  22 NW20      29.66R
OGALLALA       MOCLDY    37  24  59 NW20G30   29.75R WCI  26
$$

NEZ005>010-023>029-035>040-094-060000-
NORTH CENTRAL NEBRASKA

CITY           SKY/WX    TMP DP  RH WIND       PRES   REMARKS
VALENTINE      CLOUDY    26  19  74 NW22G31   29.76R WCI  12
AINSWORTH      CLOUDY    28  21  73 NW26G33   29.75R WCI  13
BROKEN BOW     CLOUDY    40  29  64 N23       29.69R WCI  30
O`NEILL        CLOUDY    34  27  75 NW18G30   29.72R WCI  23
ORD            CLOUDY    40  29  64 NW16      29.69R WCI  31
THEDFORD       CLOUDY    31  22  69 NW24G32   29.77R WCI  17
$$

NEZ041-046>049-061>064-073>077-083>087-060000-
SOUTH CENTRAL NEBRASKA

CITY           SKY/WX    TMP DP  RH WIND       PRES   REMARKS
GRAND ISLAND   CLOUDY    47  36  65 SW9       29.63R
AURORA         CLOUDY    47  37  68 SW3       29.64R
HASTINGS       CLOUDY    48  34  58 SW7       29.64R
HEBRON         CLEAR     47  36  66 S6        29.64R
HOLDREGE       CLOUDY    46  31  54 SW6       29.64R
KEARNEY *      CLOUDY    46  30  53 CALM      29.63R
YORK           MOCLDY    48  39  71 S10       29.63R
$$

NEZ011>018-030>034-042>045-060000-
NORTHEAST NEBRASKA

CITY           SKY/WX    TMP DP  RH WIND       PRES   REMARKS
NORFOLK        CLOUDY    43  35  73 W6        29.65R
ALBION         CLOUDY    45  31  57 NW17G24   29.67R
BLAIR          CLOUDY    47  37  67 S13       29.65R
FREMONT        MOCLDY    47  36  65 SE8       29.64S
TEKAMAH        CLOUDY    45  37  73 S12       29.65R
WAYNE          CLOUDY    43  36  76 SW5       29.64R
$$

NEZ050>053-065>068-078-088>093-060000-
SOUTHEAST NEBRASKA

CITY           SKY/WX    TMP DP  RH WIND       PRES   REMARKS
LINCOLN        CLEAR     49  34  56 S8        29.66R
OMAHA EPPLEY   MOCLDY    48  36  63 S9        29.66R
BEATRICE       CLEAR     49  34  56 S12       29.65R
FALLS CITY     CLEAR     47  36  65 S9        29.69F
NEBRASKA CITY  CLEAR     46  33  60 S13       29.67R
PLATTSMOUTH    CLEAR     47  32  55 S9        29.66R
$$

NEZ044-045-051>053-067-060000-
OMAHA AREA

CITY           SKY/WX    TMP DP  RH WIND       PRES   REMARKS
OMAHA EPPLEY   MOCLDY    48  36  63 S9        29.66R
BLAIR          CLOUDY    47  37  67 S13       29.65R
FREMONT        MOCLDY    47  36  65 SE8       29.64S
MILLARD        MOCLDY    49  37  62 S7        29.66R
OFFUTT AFB     PTCLDY    47  37  68 S10       29.66R
PLATTSMOUTH    CLEAR     47  32  55 S9        29.66R
WAHOO          FAIR      47  35  62 S9        29.64R
$$




USA.gov is the U.S. government's official web portal to all federal, state and local government web resources and services.